IRIDIUM 68 [-] (25291 NORAD) Tracking and Keplerian Element Data

This shows tracking and keplerian element data for the satellite.

Feedback or suggestion? Click here.




ElementValue
Catalog25291
NameIRIDIUM 68 [-]
Epoch Orbit5611
Epoch Day157.51998795
Epoch Year2018
RAAN73.485
Inclination86.3397
Eccentricity0.0055354
Argument of Perigee87.3193
Mean Anonmoly274.324
Mean Motion16.40310493
Decay Rate0.15483272
L11 25291U 98021G 18157.51998795 .15483272 -14506-5 27879-3 0 9994
L22 25291 86.3397 73.4850 0055354 87.3193 274.3240 16.40310493 56113



Live tracking and technical data element details for IRIDIUM 68 [-] (NORAD 25291). IRIDIUM 68 [-] can be tracked NOW for your location showing map with azimuth and elevation plus other details from your city location.







IsCatalogInMostPopularTable: catalog: 25291, numindb: 469
Update: records affected: 1



GetName: 25291 IRIDIUM 68 [-]

Hit Count: updated at: Sat, 14 Mar 2026 01:52:51 GMT